Flag for USA

Past Weather in Davenport, Iowa, USA — Yesterday and Last 2 Weeks

Now
80 °F

Sunny.


Feels Like: 82 °F
Forecast: 88 / 69 °F
Wind: 10 mph from Northwest

Location: Davenport Municipal Airport

Current Time: Jul 10, 2020 at 12:12:49 pm

Latest Report: Jul 10, 2020 at 10:52 am


Visibility: 10 mi

Pressure: 29.93 "Hg

Humidity: 62%

Dew Point: 66 °F

Location of DavenportLocation

Past Weather in Davenport — Graph

°F

Davenport Temperature Yesterday

Maximum temperature yesterday: 89 °F (at 3:52 pm)
Minimum temperature yesterday: 70 °F (at 6:39 pm)
Average temperature yesterday: 77 °F

High & Low Weather Summary for the Past Weeks

 TemperatureHumidityPressure
High91 °F (Jul 7, 3:52 pm)93% (Jun 27, 5:52 am)30.08 "Hg (Jun 27, 5:52 am)
Low66 °F (Jul 4, 3:52 am)38% (Jun 25, 1:52 pm)29.71 "Hg (Jul 9, 4:52 pm)
Average78 °F73%29.90 "Hg
* Reported Jun 25 10:52 am — Jul 10 10:52 am, Davenport. Weather by CustomWeather, © 2020

Note: Actual official high and low records may vary slightly from our data, if they occured in-between our weather recording intervals... More about our weather records

Davenport Weather History for the Previous 24 Hours

Scroll right to see more
 ConditionsComfort  
Time TempWeatherWind HumidityBarometerVisibility
10:52 am
Fri, Jul 10
80 °FSunny.10 mph62%29.93 "Hg10 mi
9:52 am78 °FSunny.10 mph66%29.93 "Hg10 mi
8:52 am75 °FSunny.10 mph76%29.93 "Hg10 mi
7:52 am71 °FSunny.10 mph87%29.92 "Hg9 mi
7:24 am69 °FPassing clouds.9 mph90%29.94 "Hg8 mi
6:52 am67 °FSunny.6 mph90%29.91 "Hg10 mi
5:52 am67 °FScattered clouds.8 mph90%29.90 "Hg10 mi
4:52 am67 °FClear.9 mph93%29.88 "Hg10 mi
4:27 am67 °FPassing clouds.12 mph93%29.89 "Hg9 mi
3:52 am68 °FPassing clouds.10 mph93%29.85 "Hg9 mi
3:00 am69 °FPassing clouds.12 mph90%29.88 "Hg10 mi
2:05 am69 °FPartly cloudy.8 mph93%29.87 "Hg10 mi
1:52 am69 °FPartly cloudy.10 mph90%29.85 "Hg10 mi
1:11 am69 °FPassing clouds.10 mph93%29.87 "Hg10 mi
12:52 am70 °FMostly cloudy.9 mph90%29.83 "Hg9 mi
12:38 am70 °FMostly cloudy.12 mph90%29.85 "Hg10 mi
12:23 am70 °FMostly cloudy.7 mph90%29.85 "Hg10 mi
11:52 pm
Thu, Jul 9
70 °FOvercast.10 mph90%29.81 "Hg10 mi
11:32 pm70 °FOvercast.9 mph90%29.84 "Hg10 mi
10:52 pm70 °FMostly cloudy.13 mph93%29.80 "Hg10 mi
10:39 pm70 °FLight rain. Fog.12 mph93%29.83 "Hg5 mi
10:15 pm71 °FLow clouds.9 mph90%29.82 "Hg10 mi
9:52 pm71 °FMostly cloudy.5 mph90%29.77 "Hg10 mi
8:52 pm71 °FMostly cloudy.5 mph90%29.75 "Hg10 mi
8:04 pm71 °FBroken clouds.8 mph90%29.78 "Hg10 mi
7:52 pm71 °FMostly cloudy.9 mph90%29.75 "Hg10 mi
6:52 pm70 °FStrong thunderstorms. Fog.6 mph93%29.79 "Hg1 mi
6:39 pm70 °FStrong thunderstorms. Fog.15 mph90%29.80 "Hg1 mi
6:21 pm72 °FThunderstorms. Broken clouds.20 mph84%29.80 "Hg8 mi
6:02 pm85 °FThundershowers. Passing clouds.7 mph63%29.76 "Hg10 mi
4:52 pm87 °FScattered clouds.15 mph61%29.71 "Hg10 mi
3:52 pm89 °FPassing clouds.18 mph61%29.72 "Hg10 mi
3:17 pm88 °FBroken clouds.21 mph63%29.77 "Hg10 mi
3:02 pm86 °FThundershowers. Scattered clouds.17 mph63%29.78 "Hg10 mi
2:52 pm87 °FScattered clouds.18 mph61%29.75 "Hg10 mi
1:52 pm88 °FPassing clouds.16 mph63%29.78 "Hg10 mi
12:52 pm88 °FBroken clouds.13 mph65%29.80 "Hg10 mi
Weather by CustomWeather, © 2020

See weather overview